TimePDT,TemperatureF,Dew PointF,Humidity,Sea Level PressureIn,VisibilityMPH,Wind Direction,Wind SpeedMPH,Gust SpeedMPH,PrecipitationIn,Events,Conditions,WindDirDegrees,DateUTC
12:53 AM,43.0,37.0,80,30.03,10.0,North,8.1,-,N/A,,Clear,360,2013-10-09 07:53:00
1:53 AM,42.1,37.9,85,30.05,10.0,NNE,10.4,-,N/A,,Partly Cloudy,30,2013-10-09 08:53:00
2:53 AM,42.1,37.9,85,30.07,10.0,North,4.6,-,N/A,,Partly Cloudy,350,2013-10-09 09:53:00
3:53 AM,39.0,36.0,89,30.08,10.0,North,4.6,-,N/A,,Clear,360,2013-10-09 10:53:00
4:53 AM,37.9,35.1,89,30.08,10.0,NW,3.5,-,N/A,,Clear,320,2013-10-09 11:53:00
5:53 AM,41.0,30.9,67,30.08,10.0,NW,8.1,-,N/A,,Clear,310,2013-10-09 12:53:00
6:53 AM,41.0,30.9,67,30.10,10.0,NNW,6.9,-,N/A,,Clear,340,2013-10-09 13:53:00
7:53 AM,44.1,30.9,60,30.10,10.0,North,10.4,-,N/A,,Clear,350,2013-10-09 14:53:00
8:53 AM,48.9,30.9,50,30.09,10.0,North,8.1,-,N/A,,Clear,350,2013-10-09 15:53:00
9:53 AM,53.1,32.0,45,30.09,10.0,North,10.4,-,N/A,,Clear,360,2013-10-09 16:53:00
10:53 AM,55.9,30.9,39,30.08,10.0,North,9.2,-,N/A,,Clear,10,2013-10-09 17:53:00
11:53 AM,59.0,32.0,36,30.06,10.0,NE,4.6,-,N/A,,Clear,50,2013-10-09 18:53:00
12:53 PM,59.0,30.9,35,30.03,10.0,Calm,Calm,-,N/A,,Clear,0,2013-10-09 19:53:00
1:53 PM,61.0,30.9,32,29.99,10.0,ENE,3.5,-,N/A,,Clear,60,2013-10-09 20:53:00
2:53 PM,60.1,30.0,32,29.97,10.0,East,4.6,-,N/A,,Clear,100,2013-10-09 21:53:00
3:53 PM,61.0,28.9,30,29.96,10.0,SW,9.2,-,N/A,,Clear,220,2013-10-09 22:53:00
4:53 PM,59.0,30.9,35,29.95,10.0,SW,8.1,-,N/A,,Clear,230,2013-10-09 23:53:00
5:53 PM,57.0,30.9,37,29.94,10.0,SW,6.9,-,N/A,,Clear,220,2013-10-10 00:53:00
6:53 PM,53.1,32.0,45,29.93,10.0,SSW,5.8,-,N/A,,Clear,200,2013-10-10 01:53:00
7:53 PM,52.0,35.1,53,29.92,10.0,SSW,5.8,-,N/A,,Clear,200,2013-10-10 02:53:00
8:53 PM,51.1,36.0,56,29.91,10.0,SSW,8.1,-,N/A,,Clear,210,2013-10-10 03:53:00
9:53 PM,50.0,37.9,63,29.89,10.0,SSW,6.9,-,N/A,,Clear,210,2013-10-10 04:53:00
10:53 PM,48.9,39.0,69,29.89,10.0,Calm,Calm,-,N/A,,Partly Cloudy,0,2013-10-10 05:53:00
11:53 PM,48.9,39.0,69,29.87,10.0,Calm,Calm,-,N/A,,Mostly Cloudy,0,2013-10-10 06:53:00